Time,TemperatureF,DewpointF,PressureIn,WindDirection,WindDirectionDegrees,WindSpeedMPH,WindSpeedGustMPH,Humidity,HourlyPrecipIn,Conditions,Clouds,dailyrainin,SoftwareType,DateUTC
2013-02-18 00:02:00,26.0,19.0,29.61,SE,140,12.0,18.0,74,0.00,,,0.00,,2013-02-18 06:02:00,
2013-02-18 00:11:00,26.0,19.0,29.61,SE,140,12.0,18.0,74,0.00,,,0.00,,2013-02-18 06:11:00,
2013-02-18 00:21:00,26.0,19.0,29.60,SE,146,12.0,20.0,74,0.00,,,0.00,,2013-02-18 06:21:00,
2013-02-18 00:32:00,26.0,19.0,29.60,SE,143,11.0,18.0,74,0.00,,,0.00,,2013-02-18 06:32:00,
2013-02-18 00:41:00,26.0,19.0,29.60,SE,143,11.0,18.0,74,0.00,,,0.00,,2013-02-18 06:41:00,
2013-02-18 00:52:00,26.0,19.0,29.59,SE,140,12.0,21.0,74,0.00,,,0.00,,2013-02-18 06:52:00,
2013-02-18 01:01:00,26.0,19.0,29.59,SE,142,9.0,17.0,74,0.00,,,0.00,,2013-02-18 07:01:00,
2013-02-18 01:11:00,26.0,19.0,29.59,SE,142,9.0,17.0,74,0.00,,,0.00,,2013-02-18 07:11:00,
2013-02-18 01:22:00,26.0,19.0,29.58,SE,135,10.0,14.0,75,0.00,,,0.00,,2013-02-18 07:22:00,
2013-02-18 01:32:00,25.0,19.0,29.57,SE,131,8.0,13.0,76,0.00,,,0.00,,2013-02-18 07:32:00,
2013-02-18 01:42:00,25.0,19.0,29.57,SE,131,8.0,13.0,76,0.00,,,0.00,,2013-02-18 07:42:00,
2013-02-18 01:52:00,25.0,19.0,29.57,SE,134,9.0,14.0,76,0.00,,,0.00,,2013-02-18 07:52:00,
2013-02-18 02:01:00,25.0,19.0,29.55,SE,135,9.0,13.0,77,0.00,,,0.00,,2013-02-18 08:01:00,
2013-02-18 02:11:00,25.0,19.0,29.55,SE,135,9.0,13.0,77,0.00,,,0.00,,2013-02-18 08:11:00,
2013-02-18 02:21:00,25.0,19.0,29.55,SE,135,9.0,13.0,77,0.00,,,0.00,,2013-02-18 08:21:00,
2013-02-18 02:32:00,25.0,19.0,29.54,SE,135,9.0,16.0,77,0.00,,,0.00,,2013-02-18 08:32:00,
2013-02-18 02:42:00,25.0,19.0,29.54,SE,135,9.0,16.0,77,0.00,,,0.00,,2013-02-18 08:42:00,
2013-02-18 02:52:00,25.0,19.0,29.53,SE,143,9.0,15.0,77,0.00,,,0.00,,2013-02-18 08:52:00,
2013-02-18 03:02:00,25.0,19.0,29.53,SE,143,9.0,15.0,77,0.00,,,0.00,,2013-02-18 09:02:00,
2013-02-18 03:11:00,25.0,19.0,29.53,SE,143,9.0,15.0,77,0.00,,,0.00,,2013-02-18 09:11:00,
2013-02-18 03:22:00,25.0,19.0,29.52,SE,139,10.0,14.0,78,0.00,,,0.00,,2013-02-18 09:22:00,
2013-02-18 03:31:00,25.0,19.0,29.52,SE,141,9.0,15.0,78,0.00,,,0.00,,2013-02-18 09:31:00,
2013-02-18 03:42:00,25.0,19.0,29.52,SE,141,9.0,15.0,78,0.00,,,0.00,,2013-02-18 09:42:00,
2013-02-18 03:52:00,25.0,19.0,29.52,SE,146,9.0,14.0,78,0.00,,,0.00,,2013-02-18 09:52:00,
2013-02-18 04:01:00,25.0,19.0,29.52,SE,143,8.0,12.0,78,0.00,,,0.00,,2013-02-18 10:01:00,
2013-02-18 04:11:00,25.0,19.0,29.52,SE,143,8.0,12.0,78,0.00,,,0.00,,2013-02-18 10:11:00,
2013-02-18 04:21:00,25.0,19.0,29.50,SE,146,7.0,12.0,79,0.00,,,0.00,,2013-02-18 10:21:00,
2013-02-18 04:31:00,25.0,19.0,29.49,SE,140,9.0,14.0,79,0.00,,,0.00,,2013-02-18 10:31:00,
2013-02-18 04:42:00,25.0,19.0,29.49,SE,140,9.0,14.0,79,0.00,,,0.00,,2013-02-18 10:42:00,
2013-02-18 04:53:00,25.0,19.0,29.49,SE,145,9.0,15.0,79,0.00,,,0.00,,2013-02-18 10:53:00,
2013-02-18 05:01:00,26.0,20.0,29.48,SE,142,9.0,15.0,79,0.00,,,0.00,,2013-02-18 11:01:00,
2013-02-18 05:11:00,26.0,20.0,29.48,SE,142,9.0,15.0,79,0.00,,,0.00,,2013-02-18 11:11:00,
2013-02-18 05:22:00,26.0,20.0,29.49,SSE,153,7.0,12.0,79,0.00,,,0.00,,2013-02-18 11:22:00,
2013-02-18 05:32:00,26.0,20.0,29.49,SSE,154,7.0,11.0,79,0.00,,,0.00,,2013-02-18 11:32:00,
2013-02-18 05:42:00,26.0,20.0,29.49,SSE,154,7.0,11.0,79,0.00,,,0.00,,2013-02-18 11:42:00,
2013-02-18 05:53:00,26.0,21.0,29.49,SSE,157,6.0,8.0,80,0.00,,,0.00,,2013-02-18 11:53:00,
2013-02-18 06:02:00,26.0,21.0,29.49,SSE,153,5.0,10.0,80,0.00,,,0.00,,2013-02-18 12:02:00,
2013-02-18 06:11:00,26.0,21.0,29.49,SSE,153,5.0,10.0,80,0.00,,,0.00,,2013-02-18 12:11:00,
2013-02-18 06:22:00,26.0,21.0,29.48,SSE,149,5.0,8.0,80,0.00,,,0.00,,2013-02-18 12:22:00,
2013-02-18 06:32:00,26.0,21.0,29.49,SW,221,3.0,5.0,80,0.00,,,0.00,,2013-02-18 12:32:00,
2013-02-18 06:42:00,26.0,21.0,29.49,SW,221,3.0,5.0,80,0.00,,,0.00,,2013-02-18 12:42:00,
2013-02-18 06:52:00,26.0,21.0,29.49,WSW,241,2.0,4.0,81,0.00,,,0.00,,2013-02-18 12:52:00,
2013-02-18 07:12:00,26.0,21.0,29.49,SSE,157,2.0,7.0,81,0.00,,,0.00,,2013-02-18 13:12:00,
2013-02-18 07:22:00,27.0,22.0,29.49,SSE,164,2.0,4.0,81,0.00,,,0.00,,2013-02-18 13:22:00,
2013-02-18 07:32:00,26.0,21.0,29.49,SSE,164,3.0,4.0,81,0.00,,,0.00,,2013-02-18 13:32:00,
2013-02-18 07:42:00,26.0,21.0,29.49,SSE,164,3.0,4.0,81,0.00,,,0.00,,2013-02-18 13:42:00,
2013-02-18 07:53:00,26.0,21.0,29.49,SSE,163,1.0,3.0,82,0.00,,,0.00,,2013-02-18 13:53:00,
2013-02-18 08:02:00,27.0,22.0,29.48,SSE,163,2.0,4.0,82,0.00,,,0.00,,2013-02-18 14:02:00,
2013-02-18 08:11:00,27.0,22.0,29.48,SSE,163,2.0,4.0,82,0.00,,,0.00,,2013-02-18 14:11:00,
2013-02-18 08:22:00,27.0,22.0,29.48,SE,132,3.0,4.0,82,0.00,,,0.00,,2013-02-18 14:22:00,
2013-02-18 08:32:00,27.0,22.0,29.49,SSE,161,3.0,5.0,82,0.00,,,0.00,,2013-02-18 14:32:00,
2013-02-18 08:42:00,27.0,22.0,29.49,SSE,161,3.0,5.0,82,0.00,,,0.00,,2013-02-18 14:42:00,
2013-02-18 08:53:00,28.0,23.0,29.49,South,174,3.0,5.0,81,0.00,,,0.00,,2013-02-18 14:53:00,
2013-02-18 09:02:00,28.0,23.0,29.49,South,174,3.0,5.0,81,0.00,,,0.00,,2013-02-18 15:02:00,
2013-02-18 09:11:00,28.0,23.0,29.49,South,174,3.0,5.0,81,0.00,,,0.00,,2013-02-18 15:11:00,
2013-02-18 09:22:00,28.0,23.0,29.50,South,189,3.0,6.0,82,0.00,,,0.00,,2013-02-18 15:22:00,
2013-02-18 09:32:00,28.0,23.0,29.50,SSW,200,5.0,7.0,82,0.00,,,0.00,,2013-02-18 15:32:00,
2013-02-18 09:42:00,28.0,23.0,29.50,SSW,200,5.0,7.0,82,0.00,,,0.00,,2013-02-18 15:42:00,
2013-02-18 09:52:00,29.0,24.0,29.51,SW,224,5.0,8.0,81,0.00,,,0.00,,2013-02-18 15:52:00,
2013-02-18 10:02:00,29.0,24.0,29.51,SW,230,6.0,10.0,82,0.00,,,0.00,,2013-02-18 16:02:00,
2013-02-18 10:12:00,29.0,24.0,29.51,SW,230,6.0,10.0,82,0.00,,,0.00,,2013-02-18 16:12:00,
2013-02-18 10:22:00,30.0,25.0,29.51,WSW,242,7.0,11.0,83,0.00,,,0.00,,2013-02-18 16:22:00,
2013-02-18 10:32:00,30.0,25.0,29.51,WSW,254,8.0,11.0,83,0.00,,,0.00,,2013-02-18 16:32:00,
2013-02-18 10:42:00,30.0,25.0,29.51,WSW,254,8.0,11.0,83,0.00,,,0.00,,2013-02-18 16:42:00,
2013-02-18 10:53:00,30.0,25.0,29.52,WSW,251,6.0,12.0,83,0.00,,,0.00,,2013-02-18 16:53:00,
2013-02-18 11:03:00,31.0,26.0,29.52,West,265,8.0,15.0,83,0.00,,,0.00,,2013-02-18 17:03:00,
2013-02-18 11:22:00,31.0,27.0,29.51,West,273,9.0,14.0,84,0.00,,,0.00,,2013-02-18 17:22:00,
2013-02-18 11:32:00,31.0,28.0,29.51,West,280,9.0,15.0,87,0.00,,,0.00,,2013-02-18 17:32:00,
2013-02-18 11:42:00,31.0,28.0,29.51,West,280,9.0,15.0,87,0.00,,,0.00,,2013-02-18 17:42:00,
2013-02-18 11:52:00,31.0,27.0,29.52,West,280,9.0,20.0,86,0.00,,,0.00,,2013-02-18 17:52:00,
2013-02-18 12:02:00,31.0,27.0,29.52,West,278,11.0,20.0,85,0.00,,,0.00,,2013-02-18 18:02:00,
2013-02-18 12:12:00,31.0,27.0,29.52,West,278,11.0,20.0,85,0.00,,,0.00,,2013-02-18 18:12:00,
2013-02-18 12:22:00,31.0,26.0,29.53,West,275,10.0,15.0,83,0.00,,,0.00,,2013-02-18 18:22:00,
2013-02-18 12:32:00,30.0,24.0,29.53,West,267,10.0,18.0,79,0.00,,,0.00,,2013-02-18 18:32:00,
2013-02-18 12:43:00,30.0,24.0,29.53,West,267,10.0,18.0,79,0.00,,,0.00,,2013-02-18 18:43:00,
2013-02-18 12:53:00,30.0,24.0,29.52,WNW,282,12.0,19.0,78,0.00,,,0.00,,2013-02-18 18:53:00,
2013-02-18 13:02:00,29.0,22.0,29.53,West,278,12.0,23.0,76,0.00,,,0.00,,2013-02-18 19:02:00,
2013-02-18 13:12:00,29.0,22.0,29.53,West,278,12.0,23.0,76,0.00,,,0.00,,2013-02-18 19:12:00,
2013-02-18 13:22:00,27.0,20.0,29.53,West,275,14.0,25.0,75,0.00,,,0.00,,2013-02-18 19:22:00,
2013-02-18 13:33:00,27.0,20.0,29.53,West,278,12.0,20.0,75,0.00,,,0.00,,2013-02-18 19:33:00,
2013-02-18 13:42:00,27.0,20.0,29.53,West,278,12.0,20.0,75,0.00,,,0.00,,2013-02-18 19:42:00,
2013-02-18 13:52:00,26.0,19.0,29.53,West,271,12.0,21.0,74,0.00,,,0.00,,2013-02-18 19:52:00,
2013-02-18 14:02:00,26.0,19.0,29.54,West,281,16.0,25.0,73,0.00,,,0.00,,2013-02-18 20:02:00,
2013-02-18 14:12:00,26.0,19.0,29.54,West,281,16.0,25.0,73,0.00,,,0.00,,2013-02-18 20:12:00,
2013-02-18 14:23:00,25.0,17.0,29.54,West,277,13.0,21.0,72,0.00,,,0.00,,2013-02-18 20:23:00,
2013-02-18 14:33:00,24.0,16.0,29.55,West,279,14.0,23.0,72,0.00,,,0.00,,2013-02-18 20:33:00,
2013-02-18 14:42:00,24.0,16.0,29.55,West,279,14.0,23.0,72,0.00,,,0.00,,2013-02-18 20:42:00,
2013-02-18 14:53:00,24.0,16.0,29.56,West,275,13.0,22.0,72,0.00,,,0.00,,2013-02-18 20:53:00,
2013-02-18 15:03:00,23.0,15.0,29.56,West,277,15.0,24.0,72,0.00,,,0.00,,2013-02-18 21:03:00,
2013-02-18 15:12:00,23.0,15.0,29.56,West,277,15.0,24.0,72,0.00,,,0.00,,2013-02-18 21:12:00,
2013-02-18 15:22:00,22.0,14.0,29.57,West,275,14.0,24.0,71,0.00,,,0.00,,2013-02-18 21:22:00,
2013-02-18 15:32:00,22.0,14.0,29.58,West,281,12.0,22.0,72,0.00,,,0.00,,2013-02-18 21:32:00,
2013-02-18 15:42:00,22.0,14.0,29.58,West,281,12.0,22.0,72,0.00,,,0.00,,2013-02-18 21:42:00,
2013-02-18 15:52:00,21.0,13.0,29.59,West,278,12.0,22.0,72,0.00,,,0.00,,2013-02-18 21:52:00,
2013-02-18 16:02:00,21.0,13.0,29.59,West,280,15.0,26.0,72,0.00,,,0.00,,2013-02-18 22:02:00,
2013-02-18 16:12:00,20.0,13.0,29.60,West,277,12.0,23.0,73,0.00,,,0.00,,2013-02-18 22:12:00,
2013-02-18 16:22:00,20.0,13.0,29.60,West,277,12.0,23.0,73,0.00,,,0.00,,2013-02-18 22:22:00,
2013-02-18 16:43:00,20.0,12.0,29.61,West,271,9.0,18.0,72,0.00,,,0.00,,2013-02-18 22:43:00,
2013-02-18 16:53:00,19.0,12.0,29.62,West,270,9.0,15.0,73,0.00,,,0.00,,2013-02-18 22:53:00,
2013-02-18 17:02:00,19.0,12.0,29.62,West,270,8.0,14.0,73,0.00,,,0.00,,2013-02-18 23:02:00,
2013-02-18 17:12:00,19.0,12.0,29.62,West,270,8.0,14.0,73,0.00,,,0.00,,2013-02-18 23:12:00,
2013-02-18 17:22:00,19.0,12.0,29.62,West,277,9.0,17.0,74,0.00,,,0.00,,2013-02-18 23:22:00,
2013-02-18 17:33:00,19.0,12.0,29.63,West,280,13.0,20.0,74,0.00,,,0.00,,2013-02-18 23:33:00,
2013-02-18 17:42:00,19.0,12.0,29.63,West,280,13.0,20.0,74,0.00,,,0.00,,2013-02-18 23:42:00,
2013-02-18 17:52:00,19.0,12.0,29.64,WNW,282,12.0,18.0,74,0.00,,,0.00,,2013-02-18 23:52:00,
2013-02-18 18:03:00,18.0,11.0,29.65,WNW,283,14.0,21.0,74,0.00,,,0.00,,2013-02-19 00:03:00,
2013-02-18 18:12:00,18.0,11.0,29.65,WNW,283,14.0,21.0,74,0.00,,,0.00,,2013-02-19 00:12:00,
2013-02-18 18:22:00,18.0,11.0,29.65,WNW,290,14.0,21.0,74,0.00,,,0.00,,2013-02-19 00:22:00,
2013-02-18 18:34:00,17.0,10.0,29.65,WNW,282,12.0,21.0,74,0.00,,,0.00,,2013-02-19 00:34:00,
2013-02-18 18:43:00,17.0,10.0,29.65,WNW,282,12.0,21.0,74,0.00,,,0.00,,2013-02-19 00:43:00,
2013-02-18 18:54:00,17.0,10.0,29.66,WNW,283,15.0,24.0,74,0.00,,,0.00,,2013-02-19 00:54:00,
2013-02-18 19:03:00,16.0,9.0,29.66,WNW,287,15.0,23.0,75,0.00,,,0.00,,2013-02-19 01:03:00,
2013-02-18 19:13:00,16.0,9.0,29.66,WNW,287,15.0,23.0,75,0.00,,,0.00,,2013-02-19 01:13:00,
2013-02-18 19:24:00,16.0,9.0,29.67,WNW,288,14.0,20.0,75,0.00,,,0.00,,2013-02-19 01:24:00,
2013-02-18 19:34:00,16.0,9.0,29.67,WNW,286,13.0,21.0,75,0.00,,,0.00,,2013-02-19 01:34:00,
2013-02-18 19:43:00,16.0,9.0,29.67,WNW,286,13.0,21.0,75,0.00,,,0.00,,2013-02-19 01:43:00,
2013-02-18 19:56:00,16.0,9.0,29.67,WNW,290,13.0,20.0,74,0.00,,,0.00,,2013-02-19 01:56:00,
2013-02-18 20:02:00,16.0,9.0,29.68,WNW,300,15.0,26.0,74,0.00,,,0.00,,2013-02-19 02:02:00,
2013-02-18 20:13:00,16.0,9.0,29.68,WNW,300,15.0,26.0,74,0.00,,,0.00,,2013-02-19 02:13:00,
2013-02-18 20:23:00,16.0,9.0,29.69,WNW,303,16.0,23.0,74,0.00,,,0.00,,2013-02-19 02:23:00,
2013-02-18 20:34:00,15.0,9.0,29.69,NW,309,18.0,30.0,75,0.00,,,0.00,,2013-02-19 02:34:00,
2013-02-18 20:42:00,15.0,9.0,29.69,NW,309,18.0,30.0,75,0.00,,,0.00,,2013-02-19 02:42:00,
2013-02-18 20:55:00,15.0,9.0,29.70,WNW,298,16.0,25.0,76,0.00,,,0.00,,2013-02-19 02:55:00,
2013-02-18 21:06:00,14.0,8.0,29.70,NW,309,21.0,33.0,75,0.00,,,0.00,,2013-02-19 03:06:00,
2013-02-18 21:13:00,14.0,8.0,29.70,NW,309,21.0,33.0,75,0.00,,,0.00,,2013-02-19 03:13:00,
2013-02-18 21:23:00,14.0,8.0,29.71,NW,304,19.0,28.0,76,0.00,,,0.00,,2013-02-19 03:23:00,
2013-02-18 21:33:00,13.0,7.0,29.71,WNW,300,20.0,34.0,75,0.00,,,0.00,,2013-02-19 03:33:00,
2013-02-18 21:44:00,13.0,7.0,29.71,WNW,300,20.0,34.0,75,0.00,,,0.00,,2013-02-19 03:44:00,
2013-02-18 21:53:00,13.0,7.0,29.72,WNW,303,17.0,27.0,75,0.00,,,0.00,,2013-02-19 03:53:00,
2013-02-18 22:02:00,12.0,5.0,29.72,NW,304,21.0,31.0,74,0.00,,,0.00,,2013-02-19 04:02:00,
2013-02-18 22:13:00,12.0,5.0,29.72,NW,304,21.0,31.0,74,0.00,,,0.00,,2013-02-19 04:13:00,
2013-02-18 22:23:00,12.0,5.0,29.72,NW,311,19.0,34.0,73,0.00,,,0.00,,2013-02-19 04:23:00,
2013-02-18 22:33:00,12.0,5.0,29.72,NW,304,17.0,26.0,74,0.00,,,0.00,,2013-02-19 04:33:00,
2013-02-18 22:43:00,12.0,5.0,29.72,NW,304,17.0,26.0,74,0.00,,,0.00,,2013-02-19 04:43:00,
2013-02-18 22:53:00,11.0,5.0,29.72,NW,304,19.0,28.0,76,0.00,,,0.00,,2013-02-19 04:53:00,
2013-02-18 23:02:00,11.0,4.0,29.73,NW,310,19.0,32.0,74,0.00,,,0.00,,2013-02-19 05:02:00,
2013-02-18 23:12:00,11.0,4.0,29.73,NW,310,19.0,32.0,74,0.00,,,0.00,,2013-02-19 05:12:00,
2013-02-18 23:22:00,10.0,3.0,29.73,NW,304,20.0,30.0,73,0.00,,,0.00,,2013-02-19 05:22:00,
2013-02-18 23:32:00,10.0,3.0,29.74,WNW,301,20.0,28.0,72,0.00,,,0.00,,2013-02-19 05:32:00,
2013-02-18 23:43:00,10.0,3.0,29.74,WNW,301,20.0,28.0,72,0.00,,,0.00,,2013-02-19 05:43:00,
2013-02-18 23:52:00,9.0,2.0,29.75,NW,307,22.0,33.0,71,0.00,,,0.00,,2013-02-19 05:52:00,